Vorticity
16 10 14 14 10 7 15 18 3 4 7 9 9 6 2 15 16 8 10 9 5 9 15 26 8 5 18 12 5 2 0 -7 2 -2 14 6 4 6 -2 27 5 8 10
7 14 10 11 20 33 47 44 14 -1 12 7 8 3 18 25 27 12 10 16 27 3 10 4 13 18 24 6 19 14 13 -0 6 -22 10 8 3 -7 25 7 6 13 6
8 7 10 21 28 20 1 12 11 2 13 -2 0 35 19 21 14 15 17 5 22 18 12 1 20 11 17 23 14 22 15 15 15 25 27 0 6 6 22 11 11 6 8
1 27 18 7 9 2 26 17 29 11 2 13 41 41 6 17 10 10 7 6 17 17 11 4 9 13 20 14 13 19 16 22 22 10 12 -12 10 17 22 3 7 7 9
-3 58 1 14 15 12 3 9 7 -3 24 7 22 9 14 12 4 6 3 1 11 5 4 8 1 3 10 11 14 15 19 19 18 9 11 5 7 14 24 5 4 9 5
35 -2 -12 51 6 -11 -23 7 23 8 32 -12 15 16 0 22 21 10 3 6 4 8 13 15 9 17 16 16 14 20 21 25 18 16 12 6 -1 54 4 4 7 8 11
25 29 20 37 57 -3 -0 10 15 -9 4 5 9 2 7 11 9 14 14 11 16 14 21 18 12 17 14 11 12 15 13 15 15 15 7 -0 -4 62 -0 3 4 10 11
7 17 29 17 19 8 32 0 15 16 24 18 21 10 5 -3 11 10 12 14 18 14 6 10 14 18 17 16 12 14 13 14 11 18 3 2 48 1 13 2 7 13 11
19 5 13 18 32 28 24 58 13 12 2 7 17 24 29 36 20 13 8 -0 3 3 8 18 11 14 17 17 8 10 12 21 22 3 -8 6 48 -3 6 1 9 12 7
18 13 36 14 16 17 13 16 30 9 3 20 14 13 12 8 7 13 11 14 17 14 16 8 8 12 18 17 12 11 13 9 9 14 19 30 26 2 0 -1 10 6 8
23 24 25 28 26 26 26 28 11 3 -1 6 12 11 13 12 8 7 9 11 15 12 8 17 13 9 15 18 15 17 10 9 3 6 13 18 12 2 11 -3 -4 6 10
5 0 8 2 3 1 -0 3 5 6 8 5 6 7 7 7 7 7 8 8 8 10 9 0 3 10 10 6 12 14 14 7 4 12 20 15 8 16 15 1 8 3 10
5 11 8 17 10 8 8 8 8 11 10 11 10 7 10 9 7 7 8 8 7 10 6 9 5 -0 2 4 4 9 16 9 1 3 17 9 20 18 13 20 2 6 7
5 10 4 9 12 12 16 15 11 9 10 12 14 16 15 17 20 19 19 25 24 32 18 16 9 2 8 5 3 4 5 8 7 9 10 21 21 11 12 14 12 2 5
12 10 11 15 14 11 10 12 11 10 13 16 16 12 9 5 5 6 7 8 12 15 12 28 12 10 10 11 8 8 6 7 8 11 14 17 19 4 18 11 11 6 10
10 14 15 13 11 9 9 12 12 13 8 4 4 5 6 7 7 7 7 8 10 11 11 18 22 28 1 9 15 13 11 11 14 11 16 21 20 10 12 8 19 8 13
13 11 8 6 10 11 11 9 8 6 6 7 7 8 7 4 4 4 3 5 8 10 14 16 23 17 16 13 11 18 13 11 21 16 15 12 18 17 15 4 23 13 9
5 8 11 12 10 10 8 8 6 6 5 5 5 5 6 8 6 5 7 8 9 12 13 17 25 28 22 16 16 15 14 14 15 9 11 13 20 28 7 12 24 16 10
12 13 11 12 10 9 8 7 5 5 5 5 7 8 9 9 9 9 8 8 9 9 11 15 20 25 22 25 19 14 19 14 11 12 15 18 22 6 8 20 21 14 7
9 8 9 8 9 5 5 6 6 5 6 6 6 8 8 10 11 12 10 9 9 11 15 18 15 20 22 22 24 22 19 12 9 12 15 19 11 10 15 23 21 14 6
8 9 8 7 7 7 6 5 5 5 6 8 7 8 8 10 10 13 10 9 13 11 11 17 18 14 20 25 20 19 19 12 9 11 15 8 9 15 22 20 16 8 6
8 8 7 6 6 6 7 5 6 6 7 8 8 9 8 6 8 12 12 7 12 15 8 13 19 16 14 21 23 19 16 12 11 13 10 8 13 15 10 18 12 9 6
10 8 7 7 7 6 7 6 6 7 7 8 9 9 9 9 11 11 12 8 10 13 11 9 16 20 19 17 17 14 14 14 13 11 10 18 14 14 12 12 13 10 6
10 9 8 7 5 3 2 3 5 5 6 9 10 11 12 12 11 14 13 7 6 10 14 11 11 16 22 20 16 15 13 14 18 19 19 13 15 12 13 13 17 11 5
5 5 5 5 5 4 3 4 5 6 6 5 8 11 12 14 15 17 15 8 7 6 11 12 12 14 19 20 21 20 17 14 15 17 15 12 13 12 10 12 10 6 6
8 8 7 7 6 5 4 3 4 6 5 5 8 11 14 14 15 15 16 12 10 8 11 11 12 13 16 19 21 22 17 19 20 17 15 10 8 9 9 9 8 8 8
Height
2941 2944 2947 2950 2953 2956 2957 2962 2971 2978 2985 2990 2993 2996 3001 3003 3008 3014 3017 3021 3026 3029 3031 3034 3036 3034 3033 3041 3045 3047 3049 3052 3056 3059 3063 3068 3067 3073 3076 3076 3079 3080 3082
2931 2933 2935 2937 2939 2942 2945 2954 2958 2967 2970 2976 2979 2983 2987 2990 2996 3003 3006 3012 3014 3020 3021 3021 3025 3028 3029 3032 3035 3037 3038 3039 3041 3048 3053 3056 3062 3066 3068 3069 3070 3073 3077
2922 2925 2926 2928 2929 2932 2937 2943 2948 2949 2959 2961 2966 2970 2976 2981 2986 2991 2996 3002 3004 3008 3011 3015 3016 3017 3019 3020 3021 3023 3025 3030 3036 3042 3045 3048 3052 3058 3056 3060 3064 3066 3069
2912 2915 2916 2920 2922 2926 2929 2931 2931 2924 2947 2949 2953 2959 2966 2971 2976 2982 2987 2991 2993 2998 3000 3002 3005 3006 3008 3010 3012 3015 3017 3021 3027 3032 3034 3039 3044 3051 3050 3054 3057 3060 3063
2902 2904 2907 2910 2914 2917 2920 2922 2925 2932 2937 2939 2945 2952 2959 2964 2968 2972 2976 2979 2983 2986 2989 2991 2993 2996 2998 2999 3001 3005 3008 3011 3016 3022 3025 3031 3036 3041 3044 3049 3052 3053 3054
2894 2896 2899 2902 2902 2907 2908 2909 2918 2925 2928 2930 2937 2944 2951 2955 2958 2964 2967 2970 2975 2976 2979 2981 2984 2986 2987 2989 2990 2993 2997 3002 3006 3011 3016 3023 3030 3035 3036 3041 3045 3045 3048
2889 2889 2891 2893 2881 2893 2896 2898 2910 2914 2920 2923 2928 2934 2941 2948 2952 2956 2960 2962 2966 2968 2970 2972 2974 2975 2977 2978 2978 2981 2987 2993 2998 3004 3010 3016 3020 3026 3031 3035 3039 3040 3042
2885 2884 2887 2889 2888 2894 2896 2896 2901 2902 2908 2912 2923 2928 2934 2940 2944 2948 2952 2954 2958 2960 2963 2964 2965 2968 2969 2971 2970 2973 2978 2983 2990 2999 3004 3009 3015 3016 3021 3026 3031 3032 3035
2879 2881 2884 2884 2885 2884 2889 2890 2894 2898 2902 2907 2914 2918 2926 2931 2937 2940 2943 2948 2950 2953 2955 2956 2957 2960 2963 2963 2964 2968 2972 2978 2985 2991 2995 2998 3003 3005 3010 3015 3019 3023 3027
2872 2876 2879 2881 2884 2883 2887 2889 2894 2902 2899 2904 2907 2916 2921 2926 2931 2935 2937 2941 2943 2946 2947 2950 2952 2954 2956 2957 2957 2961 2965 2972 2977 2984 2987 2990 2991 2995 3000 3006 3011 3016 3020
2868 2872 2875 2879 2881 2883 2888 2885 2890 2898 2905 2907 2908 2913 2917 2921 2928 2928 2930 2933 2936 2939 2941 2945 2947 2949 2949 2950 2953 2954 2959 2963 2969 2974 2977 2980 2983 2987 2994 2998 3002 3009 3013
2865 2871 2874 2877 2882 2886 2887 2888 2885 2898 2902 2903 2905 2907 2913 2918 2920 2922 2924 2929 2931 2933 2935 2938 2940 2940 2942 2942 2945 2946 2949 2953 2958 2964 2969 2973 2975 2978 2983 2987 2992 2997 3000
2864 2869 2872 2876 2882 2887 2886 2889 2887 2890 2899 2905 2908 2907 2908 2915 2916 2918 2919 2922 2924 2927 2928 2930 2931 2935 2934 2934 2937 2940 2942 2946 2950 2952 2957 2964 2966 2969 2973 2979 2982 2986 2990
2864 2868 2874 2876 2879 2886 2884 2886 2887 2890 2898 2902 2907 2907 2907 2906 2912 2913 2915 2916 2916 2918 2919 2921 2923 2925 2925 2926 2928 2930 2934 2937 2942 2945 2948 2952 2957 2959 2964 2968 2972 2977 2980
2863 2869 2869 2871 2879 2884 2883 2884 2886 2892 2897 2900 2904 2906 2907 2903 2904 2906 2906 2907 2907 2910 2911 2912 2914 2916 2916 2917 2917 2921 2924 2927 2930 2934 2938 2942 2946 2951 2956 2960 2964 2969 2973
2859 2862 2866 2872 2878 2882 2881 2883 2887 2892 2895 2898 2898 2898 2900 2898 2898 2900 2900 2901 2901 2903 2902 2903 2904 2906 2908 2909 2912 2913 2914 2918 2922 2925 2929 2934 2937 2941 2948 2951 2956 2959 2965
2858 2862 2867 2872 2876 2877 2879 2882 2884 2887 2890 2892 2894 2893 2892 2893 2892 2892 2893 2895 2896 2896 2895 2894 2894 2895 2897 2899 2901 2905 2906 2906 2911 2916 2921 2925 2929 2934 2939 2942 2948 2952 2956
2858 2863 2867 2870 2871 2874 2877 2880 2881 2883 2885 2885 2886 2887 2887 2887 2887 2889 2889 2889 2889 2888 2888 2887 2885 2886 2886 2889 2890 2894 2896 2897 2902 2905 2911 2916 2922 2926 2930 2935 2940 2945 2948
2859 2862 2865 2868 2871 2873 2876 2878 2879 2882 2882 2883 2884 2886 2887 2884 2883 2884 2884 2885 2885 2883 2880 2878 2877 2877 2878 2876 2879 2882 2885 2888 2893 2896 2902 2907 2913 2917 2923 2928 2933 2937 2940
2858 2862 2864 2867 2870 2872 2875 2877 2878 2878 2879 2881 2882 2883 2881 2881 2880 2880 2880 2880 2880 2878 2875 2873 2870 2869 2868 2868 2870 2873 2876 2879 2883 2887 2893 2899 2905 2910 2915 2920 2925 2928 2933
2859 2862 2864 2866 2869 2872 2874 2875 2876 2876 2877 2877 2876 2877 2878 2879 2877 2877 2875 2874 2874 2872 2870 2868 2866 2862 2861 2861 2862 2864 2868 2872 2875 2880 2886 2891 2896 2901 2906 2912 2917 2920 2924
2859 2862 2864 2866 2869 2871 2872 2872 2873 2873 2873 2873 2874 2874 2874 2873 2871 2870 2869 2868 2867 2866 2863 2861 2859 2858 2856 2857 2856 2858 2861 2864 2868 2873 2878 2883 2888 2893 2898 2904 2908 2913 2917
2858 2861 2864 2866 2867 2868 2869 2870 2870 2869 2869 2869 2870 2869 2868 2866 2865 2863 2861 2860 2860 2860 2858 2856 2854 2853 2853 2852 2853 2853 2855 2859 2863 2866 2870 2875 2880 2885 2891 2896 2901 2905 2909
2858 2860 2862 2863 2865 2865 2865 2864 2865 2865 2865 2865 2864 2863 2861 2859 2857 2856 2855 2853 2854 2854 2852 2851 2849 2848 2847 2848 2848 2849 2850 2853 2856 2860 2864 2869 2874 2879 2884 2889 2894 2898 2901
2855 2857 2857 2858 2859 2859 2859 2859 2859 2859 2859 2858 2857 2855 2854 2852 2850 2849 2848 2847 2847 2847 2847 2846 2845 2844 2842 2842 2843 2844 2845 2847 2851 2855 2858 2862 2867 2872 2878 2883 2887 2890 2893
2851 2852 2852 2853 2853 2854 2854 2854 2853 2852 2851 2850 2849 2847 2846 2843 2841 2841 2841 2840 2841 2841 2841 2841 2840 2839 2838 2838 2837 2839 2841 2843 2846 2849 2853 2857 2861 2866 2870 2875 2879 2882 2884